Regional Weather Roundup
Issued by NWS Charleston, WV

Home | Current Version | Previous Version | Graphics & Text | Print | Product List | Glossary On
Versions: 1 2 3 4 5 6 7 8 9 10 11 12 13 14 15 16 17 18 19 20 21 22 23 24 25 26 27
000
ASUS41 KRLX 242010
RWRRLX
West Virginia Regional Weather Roundup
National Weather Service Charleston WV
300 PM EST SAT FEB 24 2018

Note: "fair" indicates few or no clouds below 12,000 feet with no
significant weather and/or obstructions to visibility.

WVZ003-242100-
Northern Panhandle of West Virginia

CITY           SKY/WX    TMP DP  RH WIND       PRES   REMARKS
WHEELING       CLOUDY    48  45  89 E14G22    30.04F
$$

WVZ009-242100-
Northwest West Virginia

CITY           SKY/WX    TMP DP  RH WIND       PRES   REMARKS
PARKERSBURG    CLOUDY    50  47  89 E5        30.06F
$$

WVZ006-242100-
Western West Virginia

CITY           SKY/WX    TMP DP  RH WIND       PRES   REMARKS
HUNTINGTON     CLOUDY    55  53  93 NE8       29.99F FOG
$$

WVZ015-242100-
West Central West Virginia

CITY           SKY/WX    TMP DP  RH WIND       PRES   REMARKS
CHARLESTON     HVY RAIN  61  60  97 CALM      29.98R FOG
$$

WVZ022-031-242100-
North Central West Virginia

CITY           SKY/WX    TMP DP  RH WIND       PRES   REMARKS
CLARKSBURG     CLOUDY    50  46  86 NE12      30.03F
MORGANTOWN     CLOUDY    47  45  93 N12G22    30.07S
$$

WVZ025-035-042-045-242100-
Southern West Virginia

CITY           SKY/WX    TMP DP  RH WIND       PRES   REMARKS
BECKLEY        CLOUDY    67  53  61 SW18G26   30.04F
LOGAN          CLOUDY    64  61  88 CALM      30.00S
BLUEFIELD      CLOUDY    66  52  60 SW20G28   30.07F
LEWISBURG      CLOUDY    65  58  75 SW9G16    30.05F
$$

WVZ047-242100-
Northern Mountains of West Virginia

CITY           SKY/WX    TMP DP  RH WIND       PRES   REMARKS
ELKINS         LGT RAIN  61  32  33 SE3       30.02F
$$

WVZ052-242100-
Eastern Panhandle of West Virginia

CITY           SKY/WX    TMP DP  RH WIND       PRES   REMARKS
MARTINSBURG    RAIN      48  47  96 NE6       30.12R FOG
PETERSBURG     MIX PCPN  49  49  97 CALM      30.07S
$$




USA.gov is the U.S. government's official web portal to all federal, state and local government web resources and services.